Regional Weather Roundup
Issued by NWS

Home | Current Version | Previous Version | Text Only | Print | Product List | Glossary Off
Versions: 1 2 3 4 5 6 7 8 9 10 11 12 13 14 15 16 17 18 19 20 21 22 23 24 25 26 27 28 29 30 31 32 33 34 35 36 37 38 39 40 41 42 43 44 45 46 47 48 49 50

000
ASUS43 KDTX 041310
RWRMI
MICHIGAN HOURLY REGIONAL WEATHER ROUNDUP
NATIONAL WEATHER SERVICE DETROIT/PONTIAC MI
900 AM EDT SAT JUL 04 2015

NOTE: "FAIR" INDICATES FEW OR NO CLOUDS BELOW 12,000 FEET WITH NO
SIGNIFICANT WEATHER AND/OR OBSTRUCTION TO VISIBILITY.

MIZ047>049-052>055-059>063-066>070-074>076-081>083-041400-
SOUTHEAST LOWER MICHIGAN

CITY           SKY/WX    TMP DP  RH WIND       PRES   REMARKS
ADRIAN         SUNNY     65  57  75 CALM      29.99R
ALMA           SUNNY     62  56  81 CALM      29.98S
ANN ARBOR      SUNNY     66  57  72 NW6       29.98R
BAD AXE        MOSUNNY   63  55  75 CALM      29.97S
CARO           MOSUNNY   58  54  85 CALM      29.97S
DETROIT CITY   SUNNY     66  52  60 NW3       29.98R
DETROIT        SUNNY     66  56  70 W7        29.99R
FLINT          SUNNY     63  54  72 CALM      29.99R
GROSSE ILE     SUNNY     66  55  68 NW6       29.97R
HILLSDALE      SUNNY     65  61  87 CALM      30.00R
HOWELL         SUNNY     62  57  84 NW5       29.99R

CITY           SKY/WX    TMP DP  RH WIND       PRES   REMARKS
JACKSON        SUNNY     64  59  83 NW3       29.99R
LAMBERTVILLE   SUNNY     65  57  74 NW3       29.99R
LANSING        MOSUNNY   62  54  74 W3        30.00R
LAPEER         FAIR      60  53  76 CALM      29.99R
MASON          SUNNY     59  57  94 CALM      29.99S
MONROE         SUNNY     64  57  77 NW3       29.98R
MT. CLEMENS    SUNNY     64  55  73 NW2       29.96R
PONTIAC        SUNNY     64  51  62 NW5       29.98R
PORT HOPE        N/A     66  58  75 VRB5      29.95R
PORT HURON     SUNNY     59  59 100 NW5       29.98R
TRI CITIES     MOSUNNY   64  54  69 W5        29.98S
MIDLAND        FAIR      63  54  72 CALM      29.97S
TROY           SUNNY     66  53  63 NW3       30.00R
SAGINAW HB     MOSUNNY   63  52  67 CALM      29.97R
$$
MIZ043>046-050>051-056>058-064>065-071>073-077>080-041400-
SOUTHWEST LOWER MICHIGAN

CITY           SKY/WX    TMP DP  RH WIND       PRES   REMARKS
BATTLE CREEK   SUNNY     64  57  78 NW3       30.01R
BENTON HARBOR  SUNNY     63  58  83 CALM      29.99S
BIG RAPIDS     SUNNY     62  54  75 CALM      29.98R
COLDWATER      SUNNY     61  59  94 CALM      30.00R FOG
FREMONT        FAIR      61  54  77 CALM      29.98S
HOLLAND        SUNNY     64  57  78 S5        30.00R
GRAND RAPIDS   CLOUDY    62  53  72 W5        30.00R
IONIA          FAIR      62  56  82 CALM      29.99R
KALAMAZOO      SUNNY     64  55  72 NW5       30.01R
LUDINGTON      SUNNY     65  57  73 SW8       29.97R
MARSHALL       SUNNY     61  57  85 CALM      29.99R
MOUNT PLEASANT SUNNY     63  55  74 CALM      29.98R
MUSKEGON       PTSUNNY   64  56  75 CALM      29.98S
SOUTH HAVEN    SUNNY     62  58  87 CALM      29.99S
$$
MIZ016>042-041400-
NORTHERN LOWER MICHIGAN

CITY           SKY/WX    TMP DP  RH WIND       PRES   REMARKS
ALPENA         MOSUNNY   68  52  56 W7        29.95S
BEAVER ISLAND  SUNNY     61  55  80 N3        29.96R
BELLAIRE       SUNNY     65  51  58 CALM      29.96R
CADILLAC       SUNNY     64  51  64 SW6       29.97S
CHARLEVOIX     SUNNY     64  55  72 SW3       29.98R
FRANKFORT      SUNNY     66  52  60 W5        29.96R
GAYLORD        SUNNY     63  49  60 W9        29.97R
GRAYLING       SUNNY     65  50  58 W5        29.97S
HARBOR SPRINGS SUNNY     61  55  79 SW5       29.96R
HOUGHTON LAKE  SUNNY     65  50  58 SW7       29.98R
MANISTEE       SUNNY     61  52  72 SW3       29.98R
OSCODA         PTSUNNY   68  52  56 W6        29.95R
PELLSTON       SUNNY     64  55  72 W5        29.96R
ROGERS CITY    SUNNY     66  56  70 W3        29.96R
TRAVERSE CITY  PTSUNNY   68  53  58 CALM      29.95R
$$
MIZ007>008-015-041400-
EASTERN UPPER MICHIGAN

CITY           SKY/WX    TMP DP  RH WIND       PRES   REMARKS
KINROSS        CLOUDY    55  55 100 N6        29.96R VSB 3/4
MACKINAC ISLAN SUNNY     61  55  80 CALM      29.95R
NEWBERRY       FOG       54  54  99 CALM      29.96R VSB<1/4
S. S. MARIE    FOG       56  54  93 W3        29.95R VSB 3/4
MUNISING         N/A     56  54  93 CALM      29.97R
$$
MIZ004>006-011>014-085-041400-
CENTRAL UPPER MICHIGAN

CITY           SKY/WX    TMP DP  RH WIND       PRES   REMARKS
MANISTIQUE     SUNNY     60  57  88 N5        29.95S
ESCANABA       SUNNY     64  61  88 CALM      29.96R
MENOMINEE      SUNNY     64  57  77 E8        29.96R
SAWYER-GWINN   SUNNY     61  57  88 N7        29.98R
$$
MIZ001>003-009>011-084-041400-
WESTERN UPPER MICHIGAN

CITY           SKY/WX    TMP DP  RH WIND       PRES   REMARKS
IRON MOUNTAIN  SUNNY     62  59  90 NW3       29.97R
HOUGHTON       SUNNY     64  56  75 CALM      29.98R
COPPER HARBOR    N/A     50  48  93 CALM      29.99R
IRONWOOD       SUNNY     61  61 100 CALM      29.96R
$$

ABBREVIATIONS USED IN REMARKS
   TC - TEMPERATURE IN CELSIUS
  WCI - WIND CHILL INDEX
   HX - HEAT INDEX
  VSB - VISIBILITY



USA.gov is the U.S. government's official web portal to all federal, state and local government web resources and services.